Change the Weather History Date:

Friday, May 16, 2014

  Actual Average Record
Temperature  
Mean Temperature 42 °F -  
Max Temperature 51 °F 68 °F 88 °F (1962)
Min Temperature 33 °F 44 °F 26 °F (1984)
Degree Days  
Heating Degree Days 23    
Moisture  
Dew Point 35 °F    
Average Humidity 73    
Maximum Humidity 100    
Minimum Humidity 49    
Precipitation  
Precipitation 0.00 in - - ()
Sea Level Pressure  
Sea Level Pressure 29.99 in    
Wind  
Wind Speed 6 mph (NW)    
Max Wind Speed 12 mph    
Max Gust Speed 17 mph    
Visibility 10 miles    
Events      
Averages and records for this station are not official NWS values.
T = Trace of Precipitation, MM = Missing Value Source: NWS Daily Summary

Daily Weather History Graph

Daily Weather History Graph

Search for Another Location

Airport or City:

Trip Planner

Search our weather history database for the weather conditions in past years. The results will help you decide how hot, cold, wet, or windy it might be!

Date:

Astronomy

May. 16, 2014 Rise Set
Actual Time 6:17 AM EDT 8:52 PM EDT
Civil Twilight 5:45 AM EDT 9:24 PM EDT
Nautical Twilight 5:05 AM EDT 10:05 PM EDT
Astronomical Twilight 4:20 AM EDT 10:50 PM EDT
Moon 10:58 PM EDT (5/16) 7:58 AM EDT (5/16)
Length of Visible Light 15h 39m
Length of Day
14h 35m
Waning Gibbous, 95% of the Moon is Illuminated
May 16
Waning Gibbous
May 21
Last Quarter
May 28
New
Jun 5
First Quarter
Jun 13
Full

Hourly Weather History & Observations

Time (EDT) Temp. Windchill Dew Point Humidity Pressure Visibility Wind Dir Wind Speed Gust Speed Precip Events Conditions
12:15 AM 39.4 °F 34.5 °F 37.8 °F 94% 30.00 in 10.0 mi WNW 6.9 mph - N/A   Clear
12:35 AM 38.7 °F 33.6 °F 37.6 °F 96% 30.00 in 10.0 mi West 6.9 mph - N/A   Clear
12:54 AM 38.7 °F 33.6 °F 37.8 °F 97% 30.00 in 10.0 mi West 6.9 mph - N/A   Clear
1:15 AM 37.8 °F 34.2 °F 37.0 °F 97% 30.00 in 10.0 mi West 4.6 mph - N/A   Clear
1:35 AM 37.8 °F 34.2 °F 37.0 °F 97% 30.00 in 10.0 mi WNW 4.6 mph - N/A   Clear
1:54 AM 37.8 °F 32.5 °F 36.9 °F 97% 30.00 in 10.0 mi WNW 6.9 mph - N/A   Clear
2:15 AM 37.0 °F 33.3 °F 36.3 °F 97% 30.00 in 10.0 mi WNW 4.6 mph - N/A   Clear
2:35 AM 36.5 °F 33.9 °F 36.0 °F 98% 29.99 in 10.0 mi NW 3.5 mph - N/A   Clear
2:54 AM 36.0 °F - 35.6 °F 99% 29.99 in 10.0 mi Calm Calm - N/A   Clear
3:15 AM 36.0 °F 33.3 °F 35.4 °F 98% 29.99 in 10.0 mi WNW 3.5 mph - N/A   Clear
3:35 AM 35.4 °F - 35.1 °F 99% 29.99 in 10.0 mi Calm Calm - N/A   Clear
3:55 AM 35.2 °F - 35.1 °F 99% 30.00 in 10.0 mi Calm Calm - N/A   Clear
4:15 AM 34.9 °F 32.0 °F 34.5 °F 99% 30.00 in 10.0 mi West 3.5 mph - N/A   Clear
4:34 AM 34.0 °F 31.0 °F 34.0 °F 100% 29.99 in 10.0 mi WNW 3.5 mph - N/A   Clear
4:55 AM 33.6 °F 30.6 °F 33.6 °F 100% 29.99 in 10.0 mi NW 3.5 mph - N/A   Clear
5:15 AM 34.0 °F 31.0 °F 34.0 °F 100% 29.99 in 10.0 mi WNW 3.5 mph - N/A   Clear
5:34 AM 34.0 °F 31.0 °F 34.0 °F 100% 29.99 in 10.0 mi West 3.5 mph - N/A   Clear
5:55 AM 33.3 °F - 33.3 °F 100% 29.99 in 10.0 mi Calm Calm - N/A   Clear
6:14 AM 33.3 °F 30.2 °F 33.3 °F 100% 29.99 in 7.0 mi WNW 3.5 mph - N/A   Clear
6:35 AM 33.3 °F 28.9 °F 33.3 °F 100% 29.99 in 7.0 mi West 4.6 mph - N/A   Clear
6:55 AM 34.2 °F - 34.2 °F 100% 29.99 in 7.0 mi Calm Calm - N/A   Clear
7:15 AM 35.2 °F 32.4 °F 35.2 °F 100% 30.00 in 10.0 mi West 3.5 mph - N/A   Clear
7:35 AM 36.7 °F 32.0 °F 36.5 °F 99% 30.00 in 10.0 mi NW 5.8 mph - N/A   Clear
7:54 AM 37.8 °F 32.5 °F 37.4 °F 99% 30.01 in 10.0 mi WNW 6.9 mph - N/A   Clear
8:15 AM 39.0 °F 33.4 °F 37.8 °F 95% 30.00 in 10.0 mi NW 8.1 mph - N/A   Clear
8:35 AM 39.9 °F 34.5 °F 37.2 °F 90% 29.99 in 10.0 mi NW 8.1 mph - N/A   Clear
8:54 AM 41.5 °F 36.4 °F 37.9 °F 87% 30.00 in 10.0 mi West 8.1 mph - N/A   Clear
9:15 AM 42.4 °F 38.1 °F 35.6 °F 77% 30.01 in 10.0 mi WNW 6.9 mph - N/A   Mostly Cloudy
9:35 AM 44.1 °F 40.8 °F 35.1 °F 71% 30.00 in 10.0 mi WNW 5.8 mph - N/A   Overcast
9:54 AM 45.1 °F 41.4 °F 33.6 °F 64% 30.00 in 10.0 mi NW 6.9 mph - N/A   Overcast
10:15 AM 46.2 °F 42.7 °F 33.6 °F 61% 29.99 in 10.0 mi NW 6.9 mph - N/A   Overcast
10:35 AM 48.2 °F - 34.3 °F 59% 30.00 in 10.0 mi NNW 9.2 mph 16.1 mph N/A   Overcast
10:55 AM 48.7 °F - 33.6 °F 56% 29.98 in 10.0 mi NNW 10.4 mph 17.3 mph N/A   Overcast
11:15 AM 47.8 °F - 33.4 °F 57% 29.99 in 10.0 mi WNW 9.2 mph - N/A   Mostly Cloudy
11:35 AM 48.6 °F - 34.3 °F 58% 29.99 in 10.0 mi NNW 9.2 mph - N/A   Mostly Cloudy
11:55 AM 48.7 °F - 33.4 °F 56% 29.99 in 10.0 mi NNW 9.2 mph - N/A   Mostly Cloudy
12:14 PM 50.4 °F - 34.7 °F 55% 29.99 in 10.0 mi NW 6.9 mph - N/A   Mostly Cloudy
12:35 PM 50.2 °F - 34.0 °F 54% 29.99 in 10.0 mi WNW 9.2 mph - N/A   Mostly Cloudy
12:55 PM 50.4 °F - 33.1 °F 52% 29.99 in 10.0 mi WNW 9.2 mph - N/A   Mostly Cloudy
1:14 PM 50.5 °F - 32.9 °F 51% 29.98 in 10.0 mi NW 8.1 mph - N/A   Scattered Clouds
1:35 PM 50.9 °F - 32.5 °F 49% 29.98 in 10.0 mi NNW 8.1 mph - N/A   Scattered Clouds
1:55 PM 51.6 °F - 33.8 °F 51% 29.98 in 10.0 mi NW 5.8 mph - N/A   Scattered Clouds
2:14 PM 51.8 °F - 33.3 °F 49% 29.97 in 10.0 mi NNW 3.5 mph - N/A   Mostly Cloudy
2:35 PM 51.4 °F - 32.9 °F 49% 29.97 in 10.0 mi NNW 5.8 mph - N/A   Overcast
2:55 PM 50.9 °F - 32.5 °F 49% 29.97 in 10.0 mi WNW 5.8 mph - N/A   Overcast
3:15 PM 51.3 °F - 34.5 °F 53% 29.98 in 10.0 mi NNW 11.5 mph - N/A   Overcast
3:35 PM 51.1 °F - 34.2 °F 52% 29.98 in 10.0 mi NW 9.2 mph - N/A   Overcast
3:54 PM 51.3 °F - 34.0 °F 52% 29.98 in 10.0 mi NW 9.2 mph - N/A   Overcast
4:15 PM 51.1 °F - 33.6 °F 51% 29.97 in 10.0 mi North 6.9 mph - N/A   Overcast
4:35 PM 50.7 °F - 33.1 °F 51% 29.97 in 10.0 mi WNW 6.9 mph - N/A   Overcast
4:54 PM 51.4 °F - 33.1 °F 50% 29.97 in 10.0 mi WNW 6.9 mph - N/A   Overcast
5:15 PM 51.4 °F - 34.0 °F 51% 29.98 in 10.0 mi NW 10.4 mph - N/A   Overcast
5:35 PM 50.7 °F - 34.0 °F 53% 29.98 in 10.0 mi WNW 8.1 mph - N/A   Overcast
5:54 PM 50.7 °F - 34.2 °F 53% 29.98 in 10.0 mi WNW 6.9 mph - N/A   Overcast
6:15 PM 50.4 °F - 34.3 °F 54% 29.98 in 10.0 mi NW 5.8 mph - N/A   Overcast
6:35 PM 50.2 °F - 34.5 °F 55% 29.98 in 10.0 mi NW 6.9 mph - N/A   Overcast
6:55 PM 49.6 °F - 34.5 °F 56% 29.99 in 10.0 mi NNW 6.9 mph - N/A   Overcast
7:15 PM 49.6 °F - 34.5 °F 56% 29.99 in 10.0 mi North 8.1 mph - N/A   Overcast
7:34 PM 49.3 °F - 35.1 °F 58% 29.99 in 10.0 mi NNW 6.9 mph - N/A   Overcast
7:55 PM 48.9 °F - 35.4 °F 60% 30.00 in 10.0 mi NNW 5.8 mph - N/A   Overcast
8:15 PM 48.6 °F - 35.2 °F 60% 30.00 in 10.0 mi NNW 6.9 mph - N/A   Overcast
8:34 PM 48.6 °F - 35.4 °F 60% 30.01 in 10.0 mi NW 4.6 mph - N/A   Overcast
8:55 PM 48.0 °F - 35.6 °F 62% 30.01 in 10.0 mi NNW 5.8 mph - N/A   Overcast
9:15 PM 47.7 °F - 35.8 °F 63% 30.01 in 10.0 mi NNW 3.5 mph - N/A   Overcast
9:35 PM 47.5 °F - 35.4 °F 63% 30.01 in 10.0 mi NNW 8.1 mph - N/A   Overcast
9:55 PM 47.1 °F - 35.8 °F 65% 30.02 in 10.0 mi NNW 5.8 mph - N/A   Overcast
10:14 PM 46.8 °F - 35.6 °F 65% 30.02 in 10.0 mi NNW 5.8 mph - N/A   Overcast
10:35 PM 46.8 °F - 35.8 °F 66% 30.03 in 10.0 mi NNW 4.6 mph - N/A   Overcast
10:55 PM 46.2 °F 43.3 °F 35.8 °F 67% 30.02 in 10.0 mi NNW 5.8 mph - N/A   Overcast
11:14 PM 45.7 °F 43.4 °F 35.2 °F 67% 30.02 in 10.0 mi NNW 4.6 mph - N/A   Overcast
11:35 PM 45.3 °F 42.3 °F 36.0 °F 70% 30.02 in 10.0 mi North 5.8 mph - N/A   Overcast
11:55 PM 45.1 °F 43.7 °F 35.8 °F 70% 30.03 in 10.0 mi NW 3.5 mph - N/A   Overcast